Time,TemperatureF,DewpointF,PressureIn,WindDirection,WindDirectionDegrees,WindSpeedMPH,WindSpeedGustMPH,Humidity,HourlyPrecipIn,Conditions,Clouds,dailyrainin,SoftwareType,DateUTC
2013-05-24 00:03:00,82.0,75.0,29.97,WNW,284,3.0,-999.0,79,-99.99,,,-99.99,,2013-05-24 04:03:00,
2013-05-24 00:12:00,82.0,75.0,29.97,WNW,284,3.0,-999.0,79,-99.99,,,-99.99,,2013-05-24 04:12:00,
2013-05-24 00:23:00,82.0,75.0,29.98,WNW,285,1.0,-999.0,80,-99.99,,,-99.99,,2013-05-24 04:23:00,
2013-05-24 00:33:00,82.0,75.0,29.98,WNW,284,1.0,-999.0,79,-99.99,,,-99.99,,2013-05-24 04:33:00,
2013-05-24 00:42:00,82.0,75.0,29.98,WNW,284,1.0,-999.0,79,-99.99,,,-99.99,,2013-05-24 04:42:00,
2013-05-24 00:53:00,82.0,75.0,29.98,WNW,283,2.0,-999.0,80,-99.99,,,-99.99,,2013-05-24 04:53:00,
2013-05-24 01:02:00,82.0,75.0,29.98,WNW,283,0.0,-999.0,80,-99.99,,,-99.99,,2013-05-24 05:02:00,
2013-05-24 01:12:00,82.0,75.0,29.98,WNW,283,0.0,-999.0,80,-99.99,,,-99.99,,2013-05-24 05:12:00,
2013-05-24 01:22:00,81.0,74.0,29.97,WNW,283,0.0,-999.0,80,-99.99,,,-99.99,,2013-05-24 05:22:00,
2013-05-24 01:32:00,81.0,74.0,29.97,WNW,283,0.0,-999.0,80,-99.99,,,-99.99,,2013-05-24 05:32:00,
2013-05-24 01:42:00,81.0,74.0,29.97,WNW,283,0.0,-999.0,80,-99.99,,,-99.99,,2013-05-24 05:42:00,
2013-05-24 01:52:00,81.0,74.0,29.96,WSW,258,0.0,-999.0,80,-99.99,,,-99.99,,2013-05-24 05:52:00,
2013-05-24 02:02:00,81.0,75.0,29.95,West,261,1.0,-999.0,81,-99.99,,,-99.99,,2013-05-24 06:02:00,
2013-05-24 02:12:00,81.0,75.0,29.95,West,261,1.0,-999.0,81,-99.99,,,-99.99,,2013-05-24 06:12:00,
2013-05-24 02:21:00,81.0,75.0,29.95,West,262,0.0,-999.0,81,-99.99,,,-99.99,,2013-05-24 06:21:00,
2013-05-24 02:32:00,81.0,75.0,29.94,West,261,0.0,-999.0,81,-99.99,,,-99.99,,2013-05-24 06:32:00,
2013-05-24 02:42:00,81.0,75.0,29.94,West,261,0.0,-999.0,81,-99.99,,,-99.99,,2013-05-24 06:42:00,
2013-05-24 02:52:00,81.0,75.0,29.93,West,277,2.0,-999.0,82,-99.99,,,-99.99,,2013-05-24 06:52:00,
2013-05-24 03:01:00,81.0,75.0,29.94,West,278,3.0,-999.0,82,-99.99,,,-99.99,,2013-05-24 07:01:00,
2013-05-24 03:11:00,81.0,75.0,29.94,West,278,3.0,-999.0,82,-99.99,,,-99.99,,2013-05-24 07:11:00,
2013-05-24 03:22:00,81.0,75.0,29.93,West,279,4.0,-999.0,82,-99.99,,,-99.99,,2013-05-24 07:22:00,
2013-05-24 03:32:00,81.0,75.0,29.93,West,276,3.0,-999.0,82,-99.99,,,-99.99,,2013-05-24 07:32:00,
2013-05-24 03:42:00,81.0,75.0,29.93,West,276,3.0,-999.0,82,-99.99,,,-99.99,,2013-05-24 07:42:00,
2013-05-24 03:52:00,81.0,75.0,29.93,West,276,0.0,-999.0,82,-99.99,,,-99.99,,2013-05-24 07:52:00,
2013-05-24 04:02:00,81.0,75.0,29.93,West,277,1.0,-999.0,82,-99.99,,,-99.99,,2013-05-24 08:02:00,
2013-05-24 04:11:00,81.0,75.0,29.93,West,277,1.0,-999.0,82,-99.99,,,-99.99,,2013-05-24 08:11:00,
2013-05-24 04:22:00,80.0,74.0,29.93,West,277,1.0,-999.0,82,-99.99,,,-99.99,,2013-05-24 08:22:00,
2013-05-24 04:33:00,80.0,74.0,29.93,West,277,1.0,-999.0,83,-99.99,,,-99.99,,2013-05-24 08:33:00,
2013-05-24 04:42:00,80.0,74.0,29.93,West,277,1.0,-999.0,83,-99.99,,,-99.99,,2013-05-24 08:42:00,
2013-05-24 04:52:00,80.0,74.0,29.93,West,277,0.0,-999.0,83,-99.99,,,-99.99,,2013-05-24 08:52:00,
2013-05-24 05:02:00,80.0,74.0,29.93,West,277,0.0,-999.0,82,-99.99,,,-99.99,,2013-05-24 09:02:00,
2013-05-24 05:11:00,80.0,74.0,29.93,West,277,0.0,-999.0,82,-99.99,,,-99.99,,2013-05-24 09:11:00,
2013-05-24 05:22:00,80.0,74.0,29.94,West,277,0.0,-999.0,82,-99.99,,,-99.99,,2013-05-24 09:22:00,
2013-05-24 05:32:00,80.0,74.0,29.94,West,277,0.0,-999.0,83,-99.99,,,-99.99,,2013-05-24 09:32:00,
2013-05-24 05:42:00,80.0,74.0,29.94,West,277,0.0,-999.0,83,-99.99,,,-99.99,,2013-05-24 09:42:00,
2013-05-24 05:53:00,80.0,74.0,29.95,WNW,296,1.0,-999.0,83,-99.99,,,-99.99,,2013-05-24 09:53:00,
2013-05-24 06:03:00,80.0,74.0,29.95,WNW,296,2.0,-999.0,82,-99.99,,,-99.99,,2013-05-24 10:03:00,
2013-05-24 06:12:00,80.0,74.0,29.95,WNW,296,2.0,-999.0,82,-99.99,,,-99.99,,2013-05-24 10:12:00,
2013-05-24 06:22:00,80.0,74.0,29.96,WNW,291,1.0,-999.0,82,-99.99,,,-99.99,,2013-05-24 10:22:00,
2013-05-24 06:33:00,80.0,74.0,29.96,WNW,292,0.0,-999.0,82,-99.99,,,-99.99,,2013-05-24 10:33:00,
2013-05-24 06:42:00,80.0,74.0,29.96,WNW,292,0.0,-999.0,82,-99.99,,,-99.99,,2013-05-24 10:42:00,
2013-05-24 06:53:00,80.0,74.0,29.96,WNW,293,1.0,-999.0,82,-99.99,,,-99.99,,2013-05-24 10:53:00,
2013-05-24 07:02:00,80.0,74.0,29.96,WNW,293,0.0,-999.0,82,-99.99,,,-99.99,,2013-05-24 11:02:00,
2013-05-24 07:12:00,80.0,74.0,29.96,WNW,293,0.0,-999.0,82,-99.99,,,-99.99,,2013-05-24 11:12:00,
2013-05-24 07:22:00,80.0,74.0,29.97,WNW,289,0.0,-999.0,82,-99.99,,,-99.99,,2013-05-24 11:22:00,
2013-05-24 07:32:00,80.0,74.0,29.97,WNW,291,0.0,-999.0,82,-99.99,,,-99.99,,2013-05-24 11:32:00,
2013-05-24 07:42:00,80.0,74.0,29.97,WNW,291,0.0,-999.0,82,-99.99,,,-99.99,,2013-05-24 11:42:00,
2013-05-24 07:52:00,80.0,74.0,29.98,West,280,1.0,-999.0,81,-99.99,,,-99.99,,2013-05-24 11:52:00,
2013-05-24 08:02:00,81.0,74.0,29.98,West,281,0.0,-999.0,80,-99.99,,,-99.99,,2013-05-24 12:02:00,
2013-05-24 08:11:00,81.0,74.0,29.98,West,281,0.0,-999.0,80,-99.99,,,-99.99,,2013-05-24 12:11:00,
2013-05-24 08:22:00,81.0,75.0,29.98,NW,304,5.0,-999.0,81,-99.99,,,-99.99,,2013-05-24 12:22:00,
2013-05-24 08:32:00,81.0,75.0,29.98,NNW,333,7.0,-999.0,82,-99.99,,,-99.99,,2013-05-24 12:32:00,
2013-05-24 08:42:00,81.0,75.0,29.98,NNW,333,7.0,-999.0,82,-99.99,,,-99.99,,2013-05-24 12:42:00,
2013-05-24 08:52:00,81.0,75.0,29.99,NW,304,6.0,-999.0,81,-99.99,,,-99.99,,2013-05-24 12:52:00,
2013-05-24 09:02:00,81.0,75.0,29.99,NW,311,8.0,-999.0,81,-99.99,,,-99.99,,2013-05-24 13:02:00,
2013-05-24 09:11:00,81.0,75.0,29.99,NW,311,8.0,-999.0,81,-99.99,,,-99.99,,2013-05-24 13:11:00,
2013-05-24 09:22:00,81.0,74.0,30.00,NW,317,9.0,-999.0,79,-99.99,,,-99.99,,2013-05-24 13:22:00,
2013-05-24 09:32:00,82.0,75.0,30.00,WNW,292,7.0,-999.0,79,-99.99,,,-99.99,,2013-05-24 13:32:00,
2013-05-24 09:42:00,82.0,75.0,30.00,WNW,292,7.0,-999.0,79,-99.99,,,-99.99,,2013-05-24 13:42:00,
2013-05-24 09:52:00,82.0,74.0,30.01,NW,304,7.0,-999.0,76,-99.99,,,-99.99,,2013-05-24 13:52:00,
2013-05-24 10:01:00,82.0,73.0,30.00,NW,313,6.0,-999.0,75,-99.99,,,-99.99,,2013-05-24 14:01:00,
2013-05-24 10:11:00,82.0,73.0,30.00,NW,313,6.0,-999.0,75,-99.99,,,-99.99,,2013-05-24 14:11:00,
2013-05-24 10:21:00,82.0,72.0,30.01,NNW,333,8.0,-999.0,73,-99.99,,,-99.99,,2013-05-24 14:21:00,
2013-05-24 10:32:00,83.0,73.0,30.01,NW,313,8.0,-999.0,73,-99.99,,,-99.99,,2013-05-24 14:32:00,
2013-05-24 10:42:00,83.0,73.0,30.01,NW,313,8.0,-999.0,73,-99.99,,,-99.99,,2013-05-24 14:42:00,
2013-05-24 10:52:00,83.0,73.0,30.01,WNW,294,7.0,-999.0,73,-99.99,,,-99.99,,2013-05-24 14:52:00,
2013-05-24 11:02:00,83.0,73.0,30.01,NW,311,7.0,-999.0,73,-99.99,,,-99.99,,2013-05-24 15:02:00,
2013-05-24 11:11:00,83.0,73.0,30.01,NW,311,7.0,-999.0,73,-99.99,,,-99.99,,2013-05-24 15:11:00,
2013-05-24 11:21:00,84.0,74.0,30.01,NW,315,6.0,-999.0,73,-99.99,,,-99.99,,2013-05-24 15:21:00,
2013-05-24 11:33:00,84.0,74.0,30.01,West,279,3.0,-999.0,72,-99.99,,,-99.99,,2013-05-24 15:33:00,
2013-05-24 11:43:00,84.0,74.0,30.01,West,279,3.0,-999.0,72,-99.99,,,-99.99,,2013-05-24 15:43:00,
2013-05-24 11:52:00,84.0,74.0,30.01,NW,323,4.0,-999.0,73,-99.99,,,-99.99,,2013-05-24 15:52:00,
2013-05-24 12:03:00,85.0,75.0,30.02,NW,311,2.0,-999.0,73,-99.99,,,-99.99,,2013-05-24 16:03:00,
2013-05-24 12:12:00,85.0,75.0,30.02,NW,311,2.0,-999.0,73,-99.99,,,-99.99,,2013-05-24 16:12:00,
2013-05-24 12:22:00,85.0,75.0,30.02,WNW,298,1.0,-999.0,72,-99.99,,,-99.99,,2013-05-24 16:22:00,
2013-05-24 12:32:00,85.0,75.0,30.02,NW,316,3.0,-999.0,72,-99.99,,,-99.99,,2013-05-24 16:32:00,
2013-05-24 12:42:00,85.0,75.0,30.02,NW,316,3.0,-999.0,72,-99.99,,,-99.99,,2013-05-24 16:42:00,
2013-05-24 12:52:00,86.0,75.0,30.02,NW,325,1.0,-999.0,70,-99.99,,,-99.99,,2013-05-24 16:52:00,
2013-05-24 13:02:00,86.0,75.0,30.02,NW,309,0.0,-999.0,69,-99.99,,,-99.99,,2013-05-24 17:02:00,
2013-05-24 13:12:00,86.0,75.0,30.02,NW,309,0.0,-999.0,69,-99.99,,,-99.99,,2013-05-24 17:12:00,
2013-05-24 13:22:00,85.0,74.0,30.01,West,275,2.0,-999.0,69,-99.99,,,-99.99,,2013-05-24 17:22:00,
2013-05-24 13:32:00,86.0,74.0,30.01,West,276,0.0,-999.0,67,-99.99,,,-99.99,,2013-05-24 17:32:00,
2013-05-24 13:42:00,86.0,74.0,30.01,West,276,0.0,-999.0,67,-99.99,,,-99.99,,2013-05-24 17:42:00,
2013-05-24 13:52:00,86.0,74.0,30.01,West,273,2.0,-999.0,68,-99.99,,,-99.99,,2013-05-24 17:52:00,
2013-05-24 14:01:00,86.0,75.0,30.00,WNW,282,3.0,-999.0,69,-99.99,,,-99.99,,2013-05-24 18:01:00,
2013-05-24 14:12:00,86.0,75.0,30.00,WNW,282,3.0,-999.0,69,-99.99,,,-99.99,,2013-05-24 18:12:00,
2013-05-24 14:22:00,86.0,75.0,30.00,West,275,5.0,-999.0,70,-99.99,,,-99.99,,2013-05-24 18:22:00,
2013-05-24 14:32:00,85.0,75.0,30.00,West,271,6.0,-999.0,73,-99.99,,,-99.99,,2013-05-24 18:32:00,
2013-05-24 14:42:00,85.0,75.0,30.00,West,271,6.0,-999.0,73,-99.99,,,-99.99,,2013-05-24 18:42:00,
2013-05-24 14:52:00,85.0,76.0,29.99,West,268,7.0,-999.0,74,-99.99,,,-99.99,,2013-05-24 18:52:00,
2013-05-24 15:01:00,85.0,76.0,29.99,West,277,8.0,-999.0,74,-99.99,,,-99.99,,2013-05-24 19:01:00,
2013-05-24 15:11:00,85.0,76.0,29.99,West,277,8.0,-999.0,74,-99.99,,,-99.99,,2013-05-24 19:11:00,
2013-05-24 15:21:00,85.0,76.0,29.98,West,281,9.0,-999.0,75,-99.99,,,-99.99,,2013-05-24 19:21:00,
2013-05-24 15:32:00,86.0,77.0,29.98,WSW,257,8.0,-999.0,74,-99.99,,,-99.99,,2013-05-24 19:32:00,
2013-05-24 15:42:00,86.0,77.0,29.98,WSW,257,8.0,-999.0,74,-99.99,,,-99.99,,2013-05-24 19:42:00,
2013-05-24 15:52:00,86.0,76.0,29.97,West,273,4.0,-999.0,72,-99.99,,,-99.99,,2013-05-24 19:52:00,
2013-05-24 16:02:00,86.0,76.0,29.97,West,280,3.0,-999.0,72,-99.99,,,-99.99,,2013-05-24 20:02:00,
2013-05-24 16:12:00,86.0,76.0,29.97,West,280,3.0,-999.0,72,-99.99,,,-99.99,,2013-05-24 20:12:00,
2013-05-24 16:22:00,87.0,76.0,29.98,WSW,247,2.0,-999.0,71,-99.99,,,-99.99,,2013-05-24 20:22:00,
2013-05-24 16:32:00,87.0,77.0,29.98,SW,221,2.0,-999.0,72,-99.99,,,-99.99,,2013-05-24 20:32:00,
2013-05-24 16:42:00,87.0,77.0,29.98,SW,221,2.0,-999.0,72,-99.99,,,-99.99,,2013-05-24 20:42:00,
2013-05-24 16:52:00,87.0,78.0,29.97,SSW,211,2.0,-999.0,74,-99.99,,,-99.99,,2013-05-24 20:52:00,
2013-05-24 17:01:00,86.0,77.0,29.97,SSW,206,5.0,-999.0,75,-99.99,,,-99.99,,2013-05-24 21:01:00,
2013-05-24 17:11:00,86.0,77.0,29.97,SSW,206,5.0,-999.0,75,-99.99,,,-99.99,,2013-05-24 21:11:00,
2013-05-24 17:21:00,85.0,76.0,29.96,SSW,195,5.0,-999.0,75,-99.99,,,-99.99,,2013-05-24 21:21:00,
2013-05-24 17:33:00,85.0,76.0,29.96,South,173,4.0,-999.0,75,-99.99,,,-99.99,,2013-05-24 21:33:00,
2013-05-24 17:42:00,85.0,76.0,29.96,South,173,4.0,-999.0,75,-99.99,,,-99.99,,2013-05-24 21:42:00,
2013-05-24 17:53:00,85.0,77.0,29.96,WSW,239,5.0,-999.0,76,-99.99,,,-99.99,,2013-05-24 21:53:00,
2013-05-24 18:03:00,85.0,76.0,29.96,South,186,5.0,-999.0,75,-99.99,,,-99.99,,2013-05-24 22:03:00,
2013-05-24 18:12:00,85.0,76.0,29.96,South,186,5.0,-999.0,75,-99.99,,,-99.99,,2013-05-24 22:12:00,
2013-05-24 18:22:00,86.0,77.0,29.96,SSW,203,3.0,-999.0,75,-99.99,,,-99.99,,2013-05-24 22:22:00,
2013-05-24 18:33:00,85.0,76.0,29.96,SW,215,3.0,-999.0,74,-99.99,,,-99.99,,2013-05-24 22:33:00,
2013-05-24 18:42:00,85.0,76.0,29.96,SW,215,3.0,-999.0,74,-99.99,,,-99.99,,2013-05-24 22:42:00,
2013-05-24 18:52:00,85.0,75.0,29.96,SW,215,0.0,-999.0,72,-99.99,,,-99.99,,2013-05-24 22:52:00,
2013-05-24 19:02:00,85.0,75.0,29.96,SW,215,0.0,-999.0,72,-99.99,,,-99.99,,2013-05-24 23:02:00,
2013-05-24 19:11:00,85.0,75.0,29.96,SW,215,0.0,-999.0,72,-99.99,,,-99.99,,2013-05-24 23:11:00,
2013-05-24 19:22:00,79.0,70.0,30.01,NNW,344,17.0,-999.0,74,-99.99,,,-99.99,,2013-05-24 23:22:00,
2013-05-24 19:32:00,76.0,69.0,30.03,SSE,167,8.0,-999.0,80,-99.99,,,-99.99,,2013-05-24 23:32:00,
2013-05-24 19:42:00,76.0,69.0,30.03,SSE,167,8.0,-999.0,80,-99.99,,,-99.99,,2013-05-24 23:42:00,
2013-05-24 19:52:00,74.0,70.0,30.00,SSW,197,1.0,-999.0,87,-99.99,,,-99.99,,2013-05-24 23:52:00,
2013-05-24 20:01:00,73.0,69.0,29.99,SSW,206,7.0,-999.0,88,-99.99,,,-99.99,,2013-05-25 00:01:00,
2013-05-24 20:12:00,73.0,69.0,29.99,SSW,206,7.0,-999.0,88,-99.99,,,-99.99,,2013-05-25 00:12:00,
2013-05-24 20:22:00,76.0,71.0,29.96,SSW,196,7.0,-999.0,85,-99.99,,,-99.99,,2013-05-25 00:22:00,
2013-05-24 20:32:00,77.0,70.0,29.97,SSW,201,2.0,-999.0,80,-99.99,,,-99.99,,2013-05-25 00:32:00,
2013-05-24 20:42:00,77.0,70.0,29.97,SSW,201,2.0,-999.0,80,-99.99,,,-99.99,,2013-05-25 00:42:00,
2013-05-24 20:52:00,78.0,71.0,29.99,SSW,202,0.0,-999.0,79,-99.99,,,-99.99,,2013-05-25 00:52:00,
2013-05-24 21:01:00,78.0,71.0,30.01,NNW,332,3.0,-999.0,79,-99.99,,,-99.99,,2013-05-25 01:01:00,
2013-05-24 21:11:00,78.0,71.0,30.01,NNW,332,3.0,-999.0,79,-99.99,,,-99.99,,2013-05-25 01:11:00,
2013-05-24 21:22:00,79.0,72.0,30.00,NNW,341,9.0,-999.0,80,-99.99,,,-99.99,,2013-05-25 01:22:00,
2013-05-24 21:32:00,78.0,70.0,30.00,NNW,338,7.0,-999.0,76,-99.99,,,-99.99,,2013-05-25 01:32:00,
2013-05-24 21:42:00,78.0,70.0,30.00,NNW,338,7.0,-999.0,76,-99.99,,,-99.99,,2013-05-25 01:42:00,
2013-05-24 21:52:00,78.0,69.0,30.00,NNW,341,0.0,-999.0,75,-99.99,,,-99.99,,2013-05-25 01:52:00,
2013-05-24 22:02:00,78.0,69.0,30.00,NNW,343,0.0,-999.0,75,-99.99,,,-99.99,,2013-05-25 02:02:00,
2013-05-24 22:12:00,78.0,69.0,30.00,NNW,343,0.0,-999.0,75,-99.99,,,-99.99,,2013-05-25 02:12:00,
2013-05-24 22:21:00,79.0,72.0,30.01,NNW,345,0.0,-999.0,79,-99.99,,,-99.99,,2013-05-25 02:21:00,
2013-05-24 22:32:00,80.0,73.0,30.02,NNW,345,0.0,-999.0,79,-99.99,,,-99.99,,2013-05-25 02:32:00,
2013-05-24 22:42:00,80.0,73.0,30.02,NNW,345,0.0,-999.0,79,-99.99,,,-99.99,,2013-05-25 02:42:00,
2013-05-24 22:52:00,80.0,73.0,30.01,NNW,345,0.0,-999.0,80,-99.99,,,-99.99,,2013-05-25 02:52:00,
2013-05-24 23:02:00,80.0,73.0,30.01,NNW,345,0.0,-999.0,80,-99.99,,,-99.99,,2013-05-25 03:02:00,
2013-05-24 23:11:00,80.0,73.0,30.01,NNW,345,0.0,-999.0,80,-99.99,,,-99.99,,2013-05-25 03:11:00,
2013-05-24 23:22:00,80.0,73.0,30.02,NNW,345,0.0,-999.0,79,-99.99,,,-99.99,,2013-05-25 03:22:00,
2013-05-24 23:32:00,80.0,73.0,30.02,NNW,345,0.0,-999.0,79,-99.99,,,-99.99,,2013-05-25 03:32:00,
2013-05-24 23:43:00,80.0,73.0,30.02,NNW,345,0.0,-999.0,79,-99.99,,,-99.99,,2013-05-25 03:43:00,
2013-05-24 23:53:00,80.0,73.0,30.02,NNW,345,0.0,-999.0,80,-99.99,,,-99.99,,2013-05-25 03:53:00,